Terminal Aerodrome Forecast
Issued by NWS Central Illinois

Home | Current Version | Previous Version | Text Only | Print | Product List | Glossary On
Versions: 1 2 3 4 5 6 7 8 9 10 11 12 13 14 15 16 17 18 19 20 21 22 23 24 25 26 27 28
000
FTUS43 KILX 011511 AAA
TAFSPI
TAF AMD
KSPI 011511Z 0115/0212 02006KT 1SM BR OVC003
     FM011600 05008KT 3SM BR OVC005
     FM011700 06008KT 6SM BR OVC008
     FM011800 VRB06KT P6SM BKN015
     FM012100 VRB06KT P6SM VCTS BKN025CB
     FM020300 34007KT 5SM BR BKN007=

USA.gov is the U.S. government's official web portal to all federal, state and local government web resources and services.